Location: Tamke-Allan Observatory
(35.8325°N, 84.6178°W)
Time: 14:49:52
(UTC-04:00)

OTV 5 (USA 277) - Visible Passes

Search period start: 18 June 2018 00:00
Search period end: 28 June 2018 00:00
Orbit: 313 x 320 km, 54.5° (Epoch: 18 June)

Date Brightness Start Highest point End Pass type
(mag) Time Alt. Az. Time Alt. Az. Time Alt. Az.
18 Jun ? 05:04:21 10° NW 05:07:02 55° NE 05:09:41 10° SE visible
19 Jun ? 03:45:40 10° N 03:46:59 13° NE 03:48:18 10° ENE visible
19 Jun ? 05:18:54 10° WNW 05:21:26 36° SW 05:23:57 10° SSE visible
19 Jun ? 21:37:15 10° W 21:39:16 19° NW 21:41:18 10° N visible
20 Jun ? 03:59:10 10° NNW 04:01:31 30° NE 04:01:31 30° NE visible
